User: anonymous   Login
Location: Unspecified
(0.0000°N, 0.0000°E)
Time: 18:43:10
(UTC+00:00)
Language:

USA 238 - Orbit

View from above orbital plane
View from above orbital plane
View from above satellite
View from above satellite

Ground track
Ground track

The orbit data is extracted from the following two-line orbital elements,

1 38758U 12048A   17229.86354112 0.00000000  00000-0  00000-0 0    00
2 38758  63.4362 144.3888 0031000   7.0158 352.9842 13.40733513    01
Epoch (UTC): 17 August 2017 20:43:29
Eccentricity: 0.0031000
inclination: 63.4362°
perigee height: 1083 km
apogee height: 1130 km
right ascension of ascending node: 144.3888°
argument of perigee: 7.0158°
revolutions per day: 13.40733513
mean anomaly at epoch: 352.9842°
orbit number at epoch: 0

The dashed part of the orbit path shows where the satellite is in the earth's shadow,  

DLR